Hourly Weather La Palma

Today, 29 September, Tuesday

Time Temperature Precipitation Wind Pressure Humidity
00:00 +24°C° 0 mm 0 mps 756 mmHg 96%
01:00 +24°C° 0 mm 0 mps 756 mmHg 96%
02:00 +23°C° 0 mm 0 mps 756 mmHg 97%
03:00 +23°C° 0 mm 0 mps 755 mmHg 97%
04:00 +23°C° 0 mm 0 mps 755 mmHg 98%
05:00 +23°C° 0 mm 0 mps 756 mmHg 97%
06:00 +24°C° 0 mm 0 mps 756 mmHg 96%
07:00 +24°C° 0 mm 0 mps 756 mmHg 95%
08:00 +26°C° 0.2 mm 0 mps 757 mmHg 87%
09:00 +29°C° 0.2 mm 0 mps 757 mmHg 78%
10:00 +31°C° 0.2 mm 0 mps 757 mmHg 69%
11:00 +33°C° 0.2 mm 1 mps 757 mmHg 67%
12:00 +33°C° 0.2 mm 1 mps 756 mmHg 66%
13:00 +35°C° 0.2 mm 2 mps 755 mmHg 64%
14:00 +32°C° 0.8 mm 2 mps 755 mmHg 70%
15:00 +31°C° 0.8 mm 2 mps 754 mmHg 76%
16:00 +30°C° 0.8 mm 2 mps 754 mmHg 82%
17:00 +29°C° 0.5 mm 2 mps 755 mmHg 86%
18:00 +28°C° 0.5 mm 2 mps 755 mmHg 90%
19:00 +27°C° 0.5 mm 1 mps 756 mmHg 94%
20:00 +27°C° 0.7 mm 1 mps 756 mmHg 94%
21:00 +27°C° 0.7 mm 1 mps 757 mmHg 94%
22:00 +27°C° 0.7 mm 1 mps 757 mmHg 94%
23:00 +27°C° 0.3 mm 1 mps 757 mmHg 95%

Tomorrow, 30 September, Wednesday

Time Temperature Precipitation Wind Pressure Humidity
00:00 +27°C° 0.3 mm 1 mps 757 mmHg 95%
01:00 +26°C° 0.3 mm 1 mps 756 mmHg 96%
02:00 +26°C° 1.3 mm 1 mps 756 mmHg 96%
03:00 +26°C° 1.3 mm 1 mps 756 mmHg 96%
04:00 +26°C° 1.3 mm 1 mps 756 mmHg 97%
05:00 +26°C° 0.4 mm 1 mps 756 mmHg 96%
06:00 +26°C° 0.4 mm 1 mps 757 mmHg 96%
07:00 +24°C° 0.4 mm 0 mps 757 mmHg 95%
08:00 +27°C° 0.9 mm 1 mps 758 mmHg 94%
09:00 +28°C° 0.9 mm 1 mps 758 mmHg 92%
10:00 +29°C° 0.9 mm 2 mps 759 mmHg 91%
11:00 +28°C° 1.6 mm 2 mps 758 mmHg 92%
12:00 +28°C° 1.6 mm 1 mps 757 mmHg 93%
13:00 +27°C° 1.6 mm 1 mps 756 mmHg 95%
14:00 +27°C° 0.1 mm 1 mps 756 mmHg 94%
15:00 +27°C° 0.1 mm 1 mps 756 mmHg 94%
16:00 +27°C° 0.1 mm 2 mps 755 mmHg 94%
17:00 +27°C° 0 mm 1 mps 756 mmHg 95%
18:00 +26°C° 0 mm 1 mps 756 mmHg 95%
19:00 +26°C° 0 mm 1 mps 757 mmHg 96%
20:00 +26°C° 0 mm 1 mps 757 mmHg 96%
21:00 +26°C° 0 mm 1 mps 758 mmHg 96%
22:00 +25°C° 0 mm 1 mps 758 mmHg 97%
23:00 +25°C° 0.4 mm 1 mps 758 mmHg 97%

Day after tomorrow, 1 October, Thursday

Time Temperature Precipitation Wind Pressure Humidity
00:00 +25°C° 0.4 mm 1 mps 757 mmHg 97%
01:00 +25°C° 0.4 mm 1 mps 757 mmHg 98%
02:00 +25°C° 0.1 mm 1 mps 757 mmHg 98%
03:00 +23°C° 0.1 mm 0 mps 756 mmHg 97%
04:00 +23°C° 0.1 mm 0 mps 756 mmHg 97%
05:00 +25°C° 0.1 mm 1 mps 756 mmHg 97%
06:00 +25°C° 0.1 mm 1 mps 756 mmHg 96%
07:00 +26°C° 0.1 mm 1 mps 757 mmHg 96%
08:00 +28°C° 0 mm 1 mps 757 mmHg 87%
09:00 +30°C° 0 mm 1 mps 758 mmHg 78%
10:00 +32°C° 0 mm 2 mps 758 mmHg 68%
11:00 +32°C° 0.5 mm 2 mps 757 mmHg 70%
12:00 +33°C° 0.5 mm 3 mps 756 mmHg 72%
13:00 +33°C° 0.5 mm 3 mps 756 mmHg 73%
14:00 +30°C° 0.3 mm 3 mps 755 mmHg 77%
15:00 +29°C° 0.3 mm 3 mps 755 mmHg 82%
16:00 +28°C° 0.3 mm 3 mps 755 mmHg 86%
17:00 +27°C° 0.1 mm 2 mps 755 mmHg 88%
18:00 +27°C° 0.1 mm 2 mps 756 mmHg 90%
19:00 +26°C° 0.1 mm 1 mps 756 mmHg 92%
20:00 +26°C° 0 mm 1 mps 757 mmHg 92%
21:00 +26°C° 0 mm 1 mps 757 mmHg 93%
22:00 +26°C° 0 mm 1 mps 757 mmHg 93%
23:00 +26°C° 0 mm 1 mps 757 mmHg 94%

2 October, Friday

Time Temperature Precipitation Wind Pressure Humidity
00:00 +26°C° 0 mm 1 mps 757 mmHg 95%
01:00 +26°C° 0 mm 1 mps 756 mmHg 97%
02:00 +25°C° 0.1 mm 1 mps 756 mmHg 97%
03:00 +25°C° 0.1 mm 1 mps 756 mmHg 97%
04:00 +25°C° 0.1 mm 1 mps 756 mmHg 97%
05:00 +25°C° 0.1 mm 1 mps 756 mmHg 97%
06:00 +26°C° 0.1 mm 1 mps 756 mmHg 96%
07:00 +26°C° 0.1 mm 1 mps 756 mmHg 95%
08:00 +28°C° 0.1 mm 1 mps 756 mmHg 86%
09:00 +30°C° 0.1 mm 1 mps 757 mmHg 76%
10:00 +32°C° 0.1 mm 1 mps 757 mmHg 67%
11:00 +31°C° 1.4 mm 1 mps 756 mmHg 71%
12:00 +31°C° 1.4 mm 2 mps 756 mmHg 76%
13:00 +30°C° 1.4 mm 2 mps 755 mmHg 81%
14:00 +29°C° 1.6 mm 3 mps 755 mmHg 85%
15:00 +28°C° 1.6 mm 3 mps 755 mmHg 89%
16:00 +27°C° 1.6 mm 3 mps 754 mmHg 93%
17:00 +27°C° 1.1 mm 3 mps 755 mmHg 94%
18:00 +26°C° 1.1 mm 3 mps 755 mmHg 95%
19:00 +26°C° 1.1 mm 3 mps 756 mmHg 96%
20:00 +26°C° 0.8 mm 3 mps 756 mmHg 96%
21:00 +26°C° 0.8 mm 3 mps 757 mmHg 96%
22:00 +26°C° 0.8 mm 3 mps 757 mmHg 96%
23:00 +26°C° 0.1 mm 3 mps 757 mmHg 97%

3 October, Saturday

Time Temperature Precipitation Wind Pressure Humidity
00:00 +26°C° 0.1 mm 3 mps 756 mmHg 97%
01:00 +26°C° 0.1 mm 3 mps 756 mmHg 97%
02:00 +25°C° 0.2 mm 2 mps 756 mmHg 97%
03:00 +25°C° 0.2 mm 2 mps 756 mmHg 98%
04:00 +25°C° 0.2 mm 2 mps 756 mmHg 98%
05:00 +25°C° 0.3 mm 2 mps 756 mmHg 97%
06:00 +25°C° 0.3 mm 1 mps 756 mmHg 97%
07:00 +26°C° 0.3 mm 1 mps 757 mmHg 97%
08:00 +27°C° 0.5 mm 2 mps 757 mmHg 91%
09:00 +28°C° 0.5 mm 2 mps 757 mmHg 86%
10:00 +30°C° 0.5 mm 2 mps 758 mmHg 80%
11:00 +29°C° 2.2 mm 3 mps 757 mmHg 83%
12:00 +29°C° 2.2 mm 3 mps 757 mmHg 87%
13:00 +29°C° 2.2 mm 3 mps 756 mmHg 90%
14:00 +28°C° 3.7 mm 4 mps 756 mmHg 92%
15:00 +27°C° 3.7 mm 4 mps 756 mmHg 94%
16:00 +26°C° 3.7 mm 4 mps 755 mmHg 97%
17:00 +25°C° 1.9 mm 3 mps 756 mmHg 97%
18:00 +25°C° 1.9 mm 3 mps 756 mmHg 97%
19:00 +25°C° 1.9 mm 2 mps 757 mmHg 98%
20:00 +25°C° 0.4 mm 2 mps 757 mmHg 98%
21:00 +25°C° 0.4 mm 2 mps 758 mmHg 98%
22:00 +25°C° 0.4 mm 1 mps 758 mmHg 98%
23:00 +25°C° 0 mm 1 mps 758 mmHg 98%

4 October, Sunday

Time Temperature Precipitation Wind Pressure Humidity
00:00 +25°C° 0 mm 1 mps 758 mmHg 98%
01:00 +25°C° 0 mm 2 mps 757 mmHg 98%
02:00 +25°C° 0.1 mm 2 mps 757 mmHg 98%
03:00 +25°C° 0.1 mm 2 mps 757 mmHg 98%
04:00 +25°C° 0.1 mm 2 mps 757 mmHg 98%
05:00 +25°C° 0.1 mm 1 mps 757 mmHg 97%
06:00 +25°C° 0.1 mm 1 mps 758 mmHg 97%
07:00 +25°C° 0.1 mm 1 mps 758 mmHg 97%
08:00 +26°C° 0.5 mm 1 mps 758 mmHg 92%
09:00 +28°C° 0.5 mm 1 mps 759 mmHg 87%
10:00 +29°C° 0.5 mm 1 mps 759 mmHg 82%
11:00 +29°C° 1.5 mm 2 mps 758 mmHg 84%
12:00 +29°C° 1.5 mm 2 mps 758 mmHg 86%
13:00 +29°C° 1.5 mm 3 mps 757 mmHg 89%
14:00 +29°C° 1.1 mm 3 mps 757 mmHg 88%
15:00 +29°C° 1.1 mm 4 mps 756 mmHg 87%
16:00 +29°C° 1.1 mm 4 mps 756 mmHg 86%
17:00 +28°C° 0.5 mm 3 mps 757 mmHg 88%
18:00 +27°C° 0.5 mm 3 mps 757 mmHg 90%
19:00 +26°C° 0.5 mm 2 mps 758 mmHg 93%
20:00 +26°C° 0.5 mm 2 mps 758 mmHg 94%
21:00 +26°C° 0.5 mm 2 mps 759 mmHg 95%
22:00 +26°C° 0.5 mm 1 mps 759 mmHg 96%
23:00 +26°C° 0.3 mm 1 mps 759 mmHg 97%
Show more